Location: ??? ?????
(30.6482°N, 60.5850°E)
Time: 08:00:24
(UTC+00:00)

Cosmos 2184 Rocket - Pass Details

Date: 09 April 2020
Orbit: 958 x 1003 km, 82.9° (Epoch: 25 May)

Event Time Altitude Azimuth Distance (km) Brightness Sun altitude
Rises 15:35:13 0° 352° (N) 3,685 7.4 -16.1°
Reaches altitude 10° 15:37:45 10° 352° (N) 2,727 6.7 -16.6°
Maximum altitude 15:43:59 80° 266° (W) 984 4.1 -17.8°
Drops below altitude 10° 15:50:08 10° 180° (S) 2,687 6.1 -19.1°
Sets 15:52:37 0° 179° (S) 3,627 6.8 -19.6°
